| time (UTC) | temp C | wind direction | speed KPH | gust KPH | rain 1hr cm | rain 24hr cm | rain mn cm | humidity % | barometer mb |
| 20260507210103 | 23 | 248 | 1.6 | 4.8 | 0.00 | 0.00 | 0.00 | 33 | 1008.5 |
| 20260507205104 | 23 | 284 | 3.2 | 4.8 | 0.00 | 0.00 | 0.00 | 32 | 1008.9 |
| 20260507204103 | 22 | 283 | 1.6 | 3.2 | 0.00 | 0.00 | 0.00 | 33 | 1009.1 |
| 20260507203104 | 22 | 285 | 3.2 | 3.2 | 0.00 | 0.00 | 0.00 | 34 | 1009.2 |
| 20260507202103 | 22 | 286 | 3.2 | 4.8 | 0.00 | 0.00 | 0.00 | 32 | 1009.6 |
| 20260507201104 | 22 | 249 | 1.6 | 3.2 | 0.00 | 0.00 | 0.00 | 34 | 1009.7 |
| 20260507200103 | 22 | 278 | 3.2 | 4.8 | 0.00 | 0.00 | 0.00 | 36 | 1010.1 |
| 20260507195104 | 21 | 290 | 3.2 | 3.2 | 0.00 | 0.00 | 0.00 | 33 | 1010.0 |
| 20260507194103 | 21 | 280 | 3.2 | 4.8 | 0.00 | 0.00 | 0.00 | 35 | 1010.2 |
| 20260507193104 | 21 | 278 | 1.6 | 4.8 | 0.00 | 0.00 | 0.00 | 37 | 1010.2 |
| 20260507192105 | 21 | 288 | 3.2 | 3.2 | 0.00 | 0.00 | 0.00 | 35 | 1010.5 |
| 20260507191104 | 21 | 269 | 3.2 | 8.0 | 0.00 | 0.00 | 0.00 | 37 | 1010.8 |
| 20260507185104 | 20 | 280 | 3.2 | 4.8 | 0.00 | 0.00 | 0.00 | 39 | 1010.9 |
| 20260507184104 | 20 | 276 | 3.2 | 3.2 | 0.00 | 0.00 | 0.00 | 38 | 1011.4 |
| 20260507183103 | 20 | 268 | 1.6 | 4.8 | 0.00 | 0.00 | 0.00 | 39 | 1011.5 |
| 20260507182104 | 19 | 285 | 3.2 | 4.8 | 0.00 | 0.00 | 0.00 | 40 | 1011.8 |
| 20260507181105 | 19 | 288 | 3.2 | 4.8 | 0.00 | 0.00 | 0.00 | 40 | 1012.0 |
| 20260507180103 | 18 | 265 | 3.2 | 3.2 | 0.00 | 0.00 | 0.00 | 42 | 1012.1 |
| 20260507175105 | 18 | 285 | 3.2 | 4.8 | 0.00 | 0.00 | 0.00 | 42 | 1012.1 |
| 20260507174104 | 18 | 275 | 1.6 | 3.2 | 0.00 | 0.00 | 0.00 | 45 | 1012.6 |
| 20260507173103 | 18 | 277 | 1.6 | 4.8 | 0.00 | 0.00 | 0.00 | 45 | 1012.7 |
| 20260507172103 | 18 | 277 | 1.6 | 4.8 | 0.00 | 0.00 | 0.00 | 43 | 1012.9 |
| 20260507171104 | 17 | 287 | 1.6 | 4.8 | 0.00 | 0.00 | 0.00 | 46 | 1013.2 |
| 20260507170103 | 17 | 295 | 3.2 | 9.7 | 0.00 | 0.00 | 0.00 | 47 | 1013.5 |
| 20260507165104 | 17 | 287 | 1.6 | 4.8 | 0.00 | 0.00 | 0.00 | 49 | 1013.6 |
| 20260507164103 | 17 | 244 | 4.8 | 11.3 | 0.00 | 0.00 | 0.00 | 48 | 1013.8 |
| 20260507163104 | 16 | 293 | 4.8 | 8.0 | 0.00 | 0.00 | 0.00 | 49 | 1014.0 |
| 20260507162103 | 16 | 282 | 3.2 | 4.8 | 0.00 | 0.00 | 0.00 | 50 | 1014.0 |
| 20260507161104 | 16 | 286 | 3.2 | 4.8 | 0.00 | 0.00 | 0.00 | 51 | 1014.0 |
| 20260507160103 | 16 | 276 | 1.6 | 4.8 | 0.00 | 0.00 | 0.00 | 52 | 1013.9 |
| 20260507155104 | 16 | 276 | 1.6 | 8.0 | 0.00 | 0.00 | 0.00 | 53 | 1014.0 |
| 20260507154104 | 15 | 279 | 1.6 | 1.6 | 0.00 | 0.00 | 0.00 | 54 | 1014.3 |
| 20260507153103 | 15 | 263 | 1.6 | 4.8 | 0.00 | 0.00 | 0.00 | 55 | 1014.4 |
| 20260507152103 | 15 | 274 | 3.2 | 8.0 | 0.00 | 0.00 | 0.00 | 56 | 1014.5 |
| 20260507151104 | 14 | 270 | 1.6 | 3.2 | 0.00 | 0.00 | 0.00 | 58 | 1014.7 |
| 20260507150103 | 14 | 285 | 3.2 | 4.8 | 0.00 | 0.00 | 0.00 | 58 | 1014.9 |
| 20260507145106 | 13 | 278 | 1.6 | 1.6 | 0.00 | 0.00 | 0.00 | 62 | 1015.0 |
| 20260507144104 | 13 | 284 | 3.2 | 4.8 | 0.00 | 0.00 | 0.00 | 63 | 1015.0 |
| 20260507143103 | 13 | 284 | 3.2 | 4.8 | 0.00 | 0.00 | 0.00 | 63 | 1015.1 |
| 20260507142104 | 12 | 283 | 1.6 | 1.6 | 0.00 | 0.00 | 0.00 | 66 | 1015.1 |
| 20260507141103 | 12 | 274 | 1.6 | 1.6 | 0.00 | 0.00 | 0.00 | 69 | 1015.3 |
| 20260507140104 | 12 | 284 | 1.6 | 1.6 | 0.00 | 0.00 | 0.00 | 70 | 1015.4 |
| 20260507135104 | 11 | 286 | 1.6 | 4.8 | 0.00 | 0.00 | 0.00 | 71 | 1015.6 |
| 20260507134103 | 11 | 291 | 1.6 | 3.2 | 0.00 | 0.00 | 0.00 | 73 | 1015.6 |
| 20260507133104 | 10 | 285 | 1.6 | 3.2 | 0.00 | 0.00 | 0.00 | 77 | 1015.8 |
| 20260507132103 | 10 | 292 | 1.6 | 1.6 | 0.00 | 0.00 | 0.00 | 79 | 1015.7 |
| 20260507131104 | 10 | 296 | 0.0 | 3.2 | 0.00 | 0.00 | 0.00 | 80 | 1015.9 |
| 20260507125103 | 8 | 355 | 0.0 | 3.2 | 0.00 | 0.00 | 0.00 | 84 | 1015.8 |
| 20260507124104 | 8 | 44 | 0.0 | 0.0 | 0.00 | 0.00 | 0.00 | 85 | 1015.7 |
| 20260507123105 | 7 | 44 | 0.0 | 0.0 | 0.00 | 0.00 | 0.00 | 87 | 1015.7 |
| 20260507122105 | 7 | 44 | 0.0 | 0.0 | 0.00 | 0.00 | 0.00 | 86 | 1015.8 |
| 20260507121103 | 7 | 44 | 0.0 | 0.0 | 0.00 | 0.00 | 0.00 | 86 | 1015.8 |
| 20260507120104 | 7 | 44 | 0.0 | 0.0 | 0.00 | 0.00 | 0.00 | 85 | 1015.5 |
| 20260507115103 | 7 | 44 | 0.0 | 0.0 | 0.00 | 0.00 | 0.00 | 84 | 1015.3 |
| 20260507114103 | 7 | 44 | 0.0 | 0.0 | 0.00 | 0.00 | 0.00 | 84 | 1015.3 |
| 20260507113103 | 7 | 44 | 0.0 | 0.0 | 0.00 | 0.00 | 0.00 | 83 | 1015.3 |
| 20260507112104 | 7 | 44 | 0.0 | 0.0 | 0.00 | 0.00 | 0.00 | 83 | 1015.3 |
| 20260507111103 | 7 | 44 | 0.0 | 0.0 | 0.00 | 0.00 | 0.00 | 82 | 1015.2 |
| 20260507105104 | 8 | 44 | 0.0 | 0.0 | 0.00 | 0.00 | 0.00 | 82 | 1015.1 |
| 20260507104103 | 8 | 44 | 0.0 | 0.0 | 0.00 | 0.00 | 0.00 | 82 | 1015.1 |
| 20260507103102 | 8 | 44 | 0.0 | 0.0 | 0.00 | 0.00 | 0.00 | 82 | 1015.1 |
| 20260507102103 | 8 | 44 | 0.0 | 0.0 | 0.00 | 0.00 | 0.00 | 82 | 1015.3 |
| 20260507101104 | 7 | 44 | 0.0 | 0.0 | 0.00 | 0.00 | 0.00 | 82 | 1015.4 |
| 20260507100103 | 8 | 44 | 0.0 | 0.0 | 0.00 | 0.00 | 0.00 | 79 | 1015.3 |
| 20260507095104 | 8 | 44 | 0.0 | 0.0 | 0.00 | 0.00 | 0.00 | 78 | 1015.4 |
| 20260507094103 | 8 | 44 | 0.0 | 0.0 | 0.00 | 0.00 | 0.00 | 78 | 1015.4 |
| 20260507093103 | 8 | 44 | 0.0 | 0.0 | 0.00 | 0.00 | 0.00 | 77 | 1015.3 |
| 20260507092104 | 9 | 44 | 0.0 | 0.0 | 0.00 | 0.00 | 0.00 | 77 | 1015.4 |
| 20260507091103 | 9 | 44 | 0.0 | 0.0 | 0.00 | 0.00 | 0.00 | 75 | 1015.4 |
| 20260507090105 | 10 | 44 | 0.0 | 0.0 | 0.00 | 0.00 | 0.00 | 74 | 1015.3 |
| 20260507085103 | 10 | 44 | 0.0 | 0.0 | 0.00 | 0.00 | 0.00 | 73 | 1015.2 |
| 20260507084104 | 10 | 44 | 0.0 | 0.0 | 0.00 | 0.00 | 0.00 | 73 | 1015.3 |
| 20260507083103 | 10 | 44 | 0.0 | 0.0 | 0.00 | 0.00 | 0.00 | 72 | 1015.5 |
| 20260507082103 | 10 | 44 | 0.0 | 0.0 | 0.00 | 0.00 | 0.00 | 72 | 1015.4 |
| 20260507081103 | 10 | 44 | 0.0 | 0.0 | 0.00 | 0.00 | 0.00 | 73 | 1015.5 |
| 20260507080104 | 10 | 44 | 0.0 | 0.0 | 0.00 | 0.00 | 0.00 | 72 | 1015.5 |
| 20260507075103 | 10 | 44 | 0.0 | 3.2 | 0.00 | 0.00 | 0.00 | 73 | 1015.6 |
| 20260507074103 | 10 | 44 | 0.0 | 0.0 | 0.00 | 0.00 | 0.00 | 73 | 1015.6 |
| 20260507073103 | 10 | 44 | 0.0 | 0.0 | 0.00 | 0.00 | 0.00 | 73 | 1015.9 |
| 20260507072104 | 10 | 44 | 0.0 | 0.0 | 0.00 | 0.00 | 0.00 | 72 | 1015.9 |
| 20260507071103 | 10 | 44 | 0.0 | 3.2 | 0.00 | 0.00 | 0.00 | 72 | 1015.9 |
| 20260507070104 | 10 | 44 | 0.0 | 0.0 | 0.00 | 0.00 | 0.00 | 74 | 1016.0 |
| 20260507065102 | 10 | 44 | 0.0 | 0.0 | 0.00 | 0.00 | 0.00 | 78 | 1016.0 |
| 20260507064103 | 10 | 44 | 0.0 | 0.0 | 0.00 | 0.00 | 0.00 | 77 | 1016.1 |
| 20260507063102 | 10 | 44 | 0.0 | 0.0 | 0.00 | 0.00 | 0.00 | 77 | 1016.2 |
| 20260507062103 | 10 | 44 | 0.0 | 0.0 | 0.00 | 0.00 | 0.00 | 76 | 1016.1 |
| 20260507061103 | 10 | 44 | 0.0 | 0.0 | 0.00 | 0.00 | 0.00 | 76 | 1016.1 |
| 20260507060104 | 10 | 44 | 0.0 | 0.0 | 0.00 | 0.00 | 0.00 | 75 | 1016.3 |
| 20260507055103 | 9 | 44 | 0.0 | 0.0 | 0.00 | 0.00 | 0.00 | 78 | 1016.4 |
| 20260507054104 | 9 | 44 | 0.0 | 0.0 | 0.00 | 0.00 | 0.00 | 74 | 1016.5 |
| 20260507053103 | 9 | 44 | 0.0 | 0.0 | 0.00 | 0.00 | 0.00 | 75 | 1016.3 |
| 20260507052103 | 9 | 44 | 0.0 | 0.0 | 0.00 | 0.00 | 0.00 | 74 | 1016.2 |
| 20260507051104 | 9 | 44 | 0.0 | 0.0 | 0.00 | 0.00 | 0.00 | 73 | 1016.3 |
| 20260507050103 | 9 | 44 | 0.0 | 0.0 | 0.00 | 0.00 | 0.00 | 72 | 1016.3 |
| 20260507045104 | 10 | 44 | 0.0 | 0.0 | 0.00 | 0.00 | 0.00 | 72 | 1016.3 |
| 20260507044103 | 10 | 44 | 0.0 | 0.0 | 0.00 | 0.00 | 0.00 | 71 | 1016.3 |
| 20260507043104 | 10 | 44 | 0.0 | 0.0 | 0.00 | 0.00 | 0.00 | 70 | 1016.2 |
| 20260507042104 | 10 | 44 | 0.0 | 0.0 | 0.00 | 0.00 | 0.00 | 68 | 1016.1 |
| 20260507041103 | 11 | 44 | 0.0 | 0.0 | 0.00 | 0.00 | 0.00 | 67 | 1015.9 |
| 20260507040104 | 11 | 44 | 0.0 | 0.0 | 0.00 | 0.00 | 0.00 | 65 | 1016.3 |
| 20260507035102 | 11 | 44 | 0.0 | 0.0 | 0.00 | 0.00 | 0.00 | 64 | 1016.3 |
| 20260507034102 | 12 | 44 | 0.0 | 0.0 | 0.00 | 0.00 | 0.00 | 64 | 1016.2 |
| 20260507033104 | 12 | 44 | 0.0 | 0.0 | 0.00 | 0.00 | 0.00 | 62 | 1016.1 |
| 20260507032104 | 12 | 28 | 0.0 | 0.0 | 0.00 | 0.03 | 0.00 | 59 | 1016.0 |
| 20260507031103 | 12 | 28 | 0.0 | 0.0 | 0.00 | 0.03 | 0.00 | 59 | 1016.1 |
| 20260507025104 | 12 | 28 | 0.0 | 0.0 | 0.00 | 0.03 | 0.00 | 58 | 1016.0 |
| 20260507024103 | 12 | 28 | 0.0 | 0.0 | 0.00 | 0.03 | 0.00 | 59 | 1015.9 |
| 20260507023104 | 12 | 28 | 0.0 | 0.0 | 0.00 | 0.05 | 0.00 | 58 | 1015.8 |
| 20260507022103 | 12 | 28 | 0.0 | 0.0 | 0.00 | 0.05 | 0.00 | 59 | 1015.8 |
| 20260507021103 | 13 | 28 | 0.0 | 0.0 | 0.00 | 0.05 | 0.00 | 55 | 1015.8 |
| 20260507020104 | 13 | 28 | 0.0 | 0.0 | 0.00 | 0.05 | 0.00 | 56 | 1015.6 |
| 20260507015104 | 13 | 28 | 0.0 | 0.0 | 0.00 | 0.05 | 0.00 | 60 | 1015.2 |
| 20260507014104 | 13 | 28 | 0.0 | 0.0 | 0.00 | 0.05 | 0.00 | 56 | 1015.2 |
| 20260507013103 | 13 | 28 | 0.0 | 1.6 | 0.00 | 0.05 | 0.00 | 53 | 1015.1 |
| 20260507012104 | 14 | 19 | 1.6 | 1.6 | 0.00 | 0.05 | 0.00 | 51 | 1014.9 |
| 20260507011103 | 14 | 0 | 0.0 | 0.0 | 0.00 | 0.05 | 0.00 | 49 | 1014.9 |
| 20260507010104 | 14 | 33 | 1.6 | 3.2 | 0.00 | 0.05 | 0.00 | 49 | 1014.9 |
| 20260507005103 | 15 | 27 | 1.6 | 4.8 | 0.00 | 0.05 | 0.00 | 47 | 1014.9 |
| 20260507004104 | 15 | 26 | 1.6 | 3.2 | 0.00 | 0.05 | 0.00 | 47 | 1014.9 |
| 20260507003103 | 15 | 23 | 8.0 | 8.0 | 0.00 | 0.05 | 0.00 | 46 | 1014.8 |
| 20260507002104 | 15 | 21 | 4.8 | 9.7 | 0.00 | 0.05 | 0.00 | 45 | 1014.9 |
| 20260507001102 | 15 | 24 | 3.2 | 8.0 | 0.00 | 0.05 | 0.00 | 45 | 1014.9 |
| 20260506235104 | 15 | 20 | 3.2 | 4.8 | 0.00 | 0.05 | 0.00 | 45 | 1014.8 |
| 20260506234103 | 15 | 42 | 3.2 | 4.8 | 0.00 | 0.05 | 0.00 | 44 | 1014.6 |
| 20260506233103 | 15 | 36 | 4.8 | 9.7 | 0.00 | 0.05 | 0.00 | 45 | 1014.6 |
| 20260506232104 | 15 | 59 | 1.6 | 4.8 | 0.00 | 0.05 | 0.00 | 44 | 1014.6 |
| 20260506231103 | 16 | 22 | 4.8 | 8.0 | 0.00 | 0.05 | 0.00 | 42 | 1014.4 |
| 20260506225104 | 16 | 320 | 1.6 | 3.2 | 0.00 | 0.05 | 0.00 | 41 | 1014.3 |
| 20260506224102 | 16 | 335 | 1.6 | 1.6 | 0.00 | 0.05 | 0.00 | 43 | 1014.2 |
| 20260506223104 | 16 | 23 | 8.0 | 9.7 | 0.00 | 0.05 | 0.00 | 42 | 1014.1 |
| 20260506222102 | 16 | 356 | 0.0 | 4.8 | 0.00 | 0.05 | 0.00 | 41 | 1014.2 |
| 20260506221103 | 16 | 20 | 3.2 | 9.7 | 0.00 | 0.05 | 0.00 | 41 | 1014.2 |
| 20260506215102 | 16 | 33 | 4.8 | 9.7 | 0.00 | 0.05 | 0.00 | 41 | 1014.3 |
| 20260506214103 | 16 | 43 | 9.7 | 19.3 | 0.00 | 0.05 | 0.00 | 41 | 1014.2 |
| 20260506213102 | 16 | 329 | 1.6 | 16.1 | 0.00 | 0.05 | 0.00 | 42 | 1014.3 |
| 20260506212102 | 16 | 341 | 4.8 | 11.3 | 0.00 | 0.05 | 0.00 | 40 | 1014.4 |
| 20260506211103 | 16 | 72 | 11.3 | 11.3 | 0.00 | 0.05 | 0.00 | 40 | 1014.6 |